Temp
10 10 10 10 10 10 10 9 9 9 9 9 9 9 9 9 9 9 9 10 10 10 10 10 10 10 10 9 9 9 9 9 9 9 9 8 8 8 8 8 8 8
10 10 10 9 10 10 9 9 9 9 9 9 9 9 9 9 9 9 9 9 9 10 10 10 10 10 9 9 9 9 9 9 9 9 8 8 8 8 8 8 9 9
10 10 10 9 9 9 9 9 9 9 9 9 9 9 9 9 9 9 9 9 9 9 10 10 10 10 9 9 9 9 9 9 9 9 9 9 9 9 9 9 9 9
10 10 10 9 9 9 9 9 9 9 9 9 9 9 9 9 9 9 9 9 9 9 10 9 9 10 9 9 9 9 9 9 9 9 9 9 9 9 9 9 9 9
10 10 10 9 9 9 9 9 9 8 9 9 9 9 9 9 9 9 9 9 9 9 9 9 9 9 9 9 9 9 9 9 9 9 9 9 9 9 9 9 9 9
10 10 10 9 9 9 9 9 9 8 8 9 9 9 9 9 8 8 8 8 8 9 9 9 9 9 9 9 9 9 10 10 9 9 9 9 9 9 9 9 9 9
9 9 9 9 9 9 9 9 9 8 8 8 8 8 8 8 8 8 9 8 8 8 9 9 9 9 9 9 9 9 10 10 10 9 9 9 9 9 9 9 9 9
9 9 9 9 9 8 8 9 8 8 8 8 8 8 9 8 8 8 8 8 8 8 9 9 9 9 9 9 10 9 9 9 9 9 9 9 9 9 9 9 9 9
9 9 8 9 9 8 8 8 8 8 8 8 8 8 8 8 8 8 8 8 8 9 9 9 9 9 10 10 10 10 9 9 9 9 10 9 9 9 9 9 9 9
9 9 9 9 8 8 8 8 8 8 8 8 8 8 8 8 8 8 8 8 9 9 9 9 9 9 10 10 10 10 9 10 10 10 9 9 9 9 9 9 9 9
8 8 9 9 8 8 8 8 8 9 8 8 8 8 8 8 8 8 8 8 8 9 9 9 9 10 10 10 10 10 10 10 10 9 9 9 9 9 9 9 9 9
8 8 8 8 8 8 8 8 8 8 8 8 8 8 8 8 8 8 8 8 8 9 9 9 9 10 10 10 10 10 10 10 10 9 9 9 10 10 9 9 9 9
8 8 8 8 8 8 8 8 8 8 8 8 8 8 8 8 8 8 8 8 8 9 9 9 9 10 10 10 10 10 10 10 10 9 9 10 10 10 9 9 9 9
8 8 8 8 8 8 8 8 8 8 8 8 8 8 7 7 7 8 8 8 8 9 9 9 10 10 10 10 10 10 10 10 10 10 10 10 10 10 9 9 9 9
8 8 8 8 8 8 8 8 8 8 8 8 8 8 7 7 7 7 8 8 8 9 9 10 10 10 10 10 10 10 10 10 10 10 10 10 10 10 10 10 9 9
8 8 8 8 8 8 8 8 8 7 7 7 8 8 7 7 8 8 8 8 8 9 9 10 10 10 10 10 10 10 10 10 10 10 10 10 10 10 10 10 9 9
8 8 8 8 8 8 8 7 7 7 7 7 7 7 7 8 8 8 8 8 8 9 9 10 10 10 10 10 10 10 10 10 10 10 10 10 10 10 10 9 9 9
8 8 8 8 8 8 8 7 7 7 7 7 7 7 8 8 8 8 8 9 9 9 9 9 10 10 10 10 10 10 10 10 10 10 10 10 10 10 9 9 9 9
9 9 8 8 8 8 8 8 7 8 8 7 7 8 8 8 8 8 9 9 9 10 10 10 10 10 10 10 10 10 10 10 10 10 10 10 10 10 9 9 9 9
8 9 9 9 9 8 8 8 8 8 8 8 8 8 8 8 8 8 9 9 10 10 10 10 10 10 10 10 10 10 10 9 9 10 10 10 10 9 9 9 9 8
8 9 9 9 9 9 9 8 8 8 8 8 8 8 8 8 8 9 9 9 10 9 9 10 10 10 10 10 10 10 9 9 10 10 10 10 10 9 9 9 9 8
9 9 9 9 9 9 9 8 8 8 8 8 8 8 8 9 9 9 9 9 10 10 10 10 10 10 10 10 9 9 9 9 9 9 9 10 10 9 9 9 9 8
10 9 9 9 9 9 9 9 8 8 8 8 8 8 9 9 9 9 9 9 10 10 10 10 10 10 10 9 9 9 9 9 9 9 9 9 10 9 9 9 8 8
10 10 9 9 9 9 8 8 8 8 8 9 9 9 9 9 9 9 9 10 10 10 10 10 10 10 9 9 9 9 9 9 9 9 9 9 9 9 9 9 8 8
10 10 9 9 9 9 9 9 9 9 9 9 9 9 9 9 9 9 9 9 10 10 10 10 10 10 9 9 9 9 9 9 9 9 9 9 9 9 9 9 8 7
10 10 10 9 9 9 9 9 9 9 9 9 9 9 9 9 9 9 9 9 10 10 10 10 10 9 9 9 9 9 9 9 9 9 9 9 9 9 9 9 8 8
Height
3164 3165 3165 3164 3164 3164 3164 3163 3163 3162 3161 3161 3161 3160 3160 3159 3158 3156 3155 3153 3152 3151 3149 3148 3147 3145 3143 3143 3142 3141 3140 3139 3138 3138 3137 3136 3136 3135 3135 3134 3133 3133
3164 3164 3164 3164 3164 3164 3164 3163 3163 3163 3162 3161 3161 3160 3160 3159 3158 3156 3155 3153 3151 3151 3149 3147 3146 3145 3143 3142 3142 3141 3140 3139 3138 3137 3137 3136 3135 3135 3134 3133 3132 3132
3164 3164 3164 3164 3165 3164 3164 3163 3163 3163 3162 3162 3161 3161 3160 3159 3158 3157 3156 3154 3153 3151 3150 3147 3146 3144 3143 3142 3141 3140 3139 3139 3137 3137 3136 3135 3135 3134 3133 3132 3131 3130
3165 3165 3164 3165 3165 3164 3164 3164 3163 3163 3162 3162 3161 3161 3160 3159 3158 3157 3156 3155 3153 3151 3149 3147 3145 3144 3142 3142 3141 3140 3138 3138 3137 3136 3135 3135 3134 3133 3132 3132 3130 3130
3165 3165 3165 3165 3165 3164 3164 3163 3163 3163 3162 3162 3162 3161 3160 3159 3158 3157 3156 3155 3153 3151 3149 3147 3145 3143 3142 3142 3141 3140 3138 3137 3137 3136 3135 3134 3133 3132 3131 3131 3130 3129
3165 3165 3165 3165 3165 3164 3164 3163 3163 3162 3162 3161 3161 3161 3160 3159 3159 3158 3156 3155 3153 3151 3150 3148 3146 3144 3143 3142 3141 3139 3138 3138 3137 3136 3135 3134 3133 3132 3130 3130 3129 3128
3166 3165 3165 3165 3164 3163 3164 3163 3163 3161 3161 3161 3161 3161 3160 3160 3159 3158 3157 3155 3153 3152 3150 3149 3147 3145 3143 3142 3140 3139 3138 3137 3136 3135 3134 3133 3132 3131 3130 3129 3128 3127
3165 3165 3165 3163 3163 3163 3163 3162 3162 3159 3159 3161 3161 3161 3161 3160 3158 3157 3156 3154 3153 3152 3150 3148 3146 3144 3143 3141 3140 3139 3138 3137 3136 3135 3133 3132 3131 3131 3129 3128 3127 3125
3163 3164 3163 3163 3164 3164 3163 3163 3163 3160 3159 3161 3161 3160 3160 3159 3158 3156 3155 3153 3153 3152 3150 3148 3146 3144 3143 3142 3140 3140 3138 3137 3136 3134 3133 3132 3131 3130 3129 3127 3126 3124
3163 3164 3165 3165 3164 3164 3163 3164 3164 3162 3162 3162 3161 3159 3159 3158 3157 3156 3154 3152 3151 3150 3149 3147 3146 3144 3143 3142 3141 3140 3138 3137 3136 3135 3133 3132 3131 3129 3128 3126 3125 3123
3164 3164 3164 3164 3163 3162 3162 3162 3161 3161 3161 3161 3160 3159 3158 3158 3157 3155 3154 3152 3150 3149 3148 3147 3145 3144 3143 3142 3141 3140 3138 3137 3136 3135 3133 3132 3130 3129 3128 3126 3124 3122
3164 3163 3162 3162 3161 3160 3160 3160 3160 3160 3160 3159 3159 3159 3158 3157 3156 3155 3154 3152 3151 3149 3148 3147 3145 3144 3143 3142 3141 3140 3139 3137 3136 3135 3133 3132 3130 3129 3127 3125 3123 3120
3160 3160 3160 3158 3158 3158 3158 3158 3159 3159 3159 3159 3158 3158 3157 3156 3155 3154 3153 3152 3151 3149 3148 3147 3145 3144 3143 3142 3141 3140 3138 3137 3136 3135 3133 3132 3130 3128 3126 3124 3122 3119
3159 3158 3157 3156 3156 3156 3156 3157 3157 3157 3157 3157 3157 3156 3156 3155 3154 3153 3152 3151 3150 3149 3148 3147 3146 3145 3143 3142 3141 3139 3138 3137 3136 3135 3133 3131 3129 3127 3125 3123 3120 3118
3158 3158 3156 3155 3155 3155 3155 3155 3155 3155 3155 3155 3155 3155 3155 3154 3153 3153 3152 3151 3149 3148 3147 3146 3145 3144 3143 3142 3141 3139 3138 3137 3136 3134 3133 3131 3129 3126 3124 3121 3118 3115
3157 3157 3155 3155 3154 3154 3153 3153 3154 3154 3154 3154 3154 3154 3154 3153 3153 3153 3152 3151 3149 3148 3147 3146 3145 3144 3143 3142 3141 3140 3138 3137 3135 3134 3132 3130 3127 3124 3121 3118 3116 3113
3157 3156 3155 3154 3153 3152 3152 3152 3152 3153 3153 3153 3153 3153 3153 3153 3153 3152 3151 3150 3149 3148 3147 3146 3145 3144 3143 3142 3141 3140 3138 3137 3135 3133 3131 3128 3125 3122 3120 3117 3115 3113
3157 3155 3154 3152 3151 3151 3151 3151 3152 3152 3152 3152 3152 3152 3152 3152 3152 3152 3151 3150 3149 3148 3148 3146 3145 3145 3144 3143 3141 3140 3138 3136 3134 3132 3130 3127 3124 3122 3120 3117 3115 3112
3157 3156 3154 3152 3151 3150 3150 3150 3151 3152 3152 3152 3152 3152 3152 3152 3152 3151 3150 3149 3148 3148 3147 3146 3145 3145 3144 3143 3141 3139 3137 3135 3133 3131 3128 3126 3124 3122 3119 3117 3115 3112
3157 3157 3156 3153 3152 3152 3151 3151 3151 3152 3152 3152 3152 3152 3152 3151 3151 3151 3150 3149 3148 3148 3147 3145 3145 3145 3144 3143 3141 3139 3137 3135 3133 3130 3127 3125 3123 3121 3119 3117 3114 3111
3156 3156 3156 3154 3153 3153 3152 3152 3152 3152 3152 3152 3152 3152 3151 3151 3151 3150 3149 3149 3148 3148 3147 3146 3146 3145 3144 3143 3141 3138 3136 3135 3132 3129 3127 3125 3124 3121 3119 3116 3114 3111
3156 3155 3155 3155 3154 3154 3153 3153 3153 3153 3153 3152 3152 3151 3151 3151 3150 3150 3149 3149 3149 3148 3147 3146 3146 3145 3144 3142 3140 3138 3136 3134 3132 3130 3128 3126 3124 3122 3119 3116 3114 3111
3158 3157 3156 3156 3155 3155 3154 3154 3154 3153 3153 3152 3152 3151 3151 3150 3150 3150 3149 3149 3148 3147 3147 3147 3146 3145 3144 3142 3140 3138 3136 3134 3132 3130 3128 3126 3124 3122 3120 3117 3114 3110
3159 3158 3158 3157 3156 3155 3155 3154 3154 3154 3153 3153 3152 3151 3151 3150 3150 3150 3149 3149 3148 3147 3147 3147 3146 3145 3144 3142 3140 3138 3137 3135 3133 3131 3129 3126 3124 3121 3120 3118 3114 3110
3160 3159 3159 3158 3157 3156 3155 3155 3154 3154 3153 3153 3152 3151 3151 3150 3150 3149 3149 3148 3148 3147 3147 3147 3146 3145 3144 3142 3140 3139 3137 3135 3134 3132 3129 3127 3124 3122 3120 3117 3113 3110
3160 3160 3159 3158 3158 3157 3156 3155 3155 3154 3153 3152 3152 3151 3150 3150 3149 3149 3149 3148 3148 3148 3147 3147 3146 3145 3143 3142 3141 3139 3138 3136 3134 3132 3130 3128 3126 3123 3120 3116 3113 3110
Wind_Speed
3 3 2 2 3 3 4 4 4 4 6 7 8 8 8 10 11 12 15 18 19 19 21 22 19 17 17 17 15 13 12 12 11 11 11 10 10 10 10 9 9 9
2 2 2 2 3 2 2 2 3 4 4 5 7 7 7 9 12 14 17 19 20 20 22 22 21 18 17 17 16 14 13 12 11 11 11 10 11 10 10 10 9 9
1 1 1 2 2 1 1 2 3 3 3 5 7 7 8 10 11 13 15 16 17 20 21 22 21 19 18 17 17 16 14 12 12 12 11 11 10 10 10 10 10 10
1 0 1 1 2 1 1 2 2 3 4 5 6 7 8 9 10 12 15 16 18 21 22 22 21 20 19 17 16 16 15 14 13 13 12 12 11 11 10 11 11 12
2 2 2 2 3 2 1 3 2 2 4 4 5 6 7 9 11 13 16 18 20 22 24 23 21 20 19 17 16 15 15 14 13 13 12 13 13 14 14 14 14 15
4 4 4 3 4 3 2 4 3 2 4 3 4 5 7 9 11 12 15 18 19 22 23 21 19 18 17 16 16 15 14 13 13 13 14 14 15 16 17 16 16 16
5 5 5 4 5 4 3 5 5 3 3 3 4 6 8 9 10 12 15 17 18 21 22 20 18 17 16 16 15 14 14 14 14 15 16 16 16 16 17 17 17 17
8 7 6 6 7 5 3 7 8 6 4 3 4 7 8 10 13 16 18 17 16 19 21 20 18 17 16 14 14 14 14 15 16 16 17 17 17 17 17 18 18 19
9 9 9 8 8 7 6 9 7 4 3 2 3 6 9 11 15 18 19 16 14 15 19 19 17 15 14 12 13 13 14 15 16 17 17 17 17 18 18 19 19 21
8 11 11 9 9 9 10 10 10 10 10 8 6 7 9 12 15 17 17 15 14 15 18 18 15 13 12 12 13 14 14 15 15 16 16 17 18 19 19 20 21 22
10 12 11 9 9 10 11 10 10 10 11 11 11 10 10 12 15 16 15 14 15 17 17 17 14 13 13 13 14 15 15 15 15 16 17 18 18 19 20 21 22 23
12 10 10 9 10 12 12 12 11 10 9 11 12 11 10 11 14 15 13 12 14 16 16 16 14 13 13 13 14 14 14 15 16 16 17 18 19 20 21 22 24 25
11 10 11 11 11 12 11 11 10 10 10 10 11 11 10 10 12 13 11 11 14 16 16 14 12 11 12 13 13 13 14 15 16 16 16 18 20 21 23 24 26 26
11 12 13 12 9 9 10 9 8 8 9 8 9 10 10 10 12 13 13 14 15 16 14 11 10 11 12 13 14 15 15 16 16 16 17 19 21 23 24 26 27 27
10 11 13 10 8 8 9 8 6 6 6 6 7 8 8 9 11 11 12 14 16 16 12 9 10 12 12 13 14 15 15 16 16 17 19 20 22 24 26 28 30 30
10 12 12 8 6 7 6 5 4 3 4 5 6 7 8 8 8 8 10 13 14 14 11 9 11 12 13 13 14 15 15 16 18 20 21 22 24 26 29 31 32 31
10 11 11 8 5 4 3 2 2 2 3 4 4 5 6 6 6 8 10 12 12 10 9 10 11 12 12 14 14 14 15 17 20 22 23 24 26 28 31 32 33 32
11 11 11 9 7 5 2 1 2 1 2 3 3 3 4 4 6 8 10 11 9 7 7 8 11 11 12 13 13 14 17 20 22 23 24 26 28 29 31 31 32 31
11 12 12 10 9 7 3 2 2 2 1 1 1 2 2 4 6 8 10 9 8 6 6 9 11 12 12 13 13 16 19 21 23 24 26 27 28 29 31 32 32 31
12 13 14 12 11 10 7 5 4 4 3 2 1 1 3 5 7 8 9 8 7 7 8 10 11 12 12 13 14 17 19 21 24 26 28 28 28 29 31 31 31 31
12 13 14 13 12 11 10 7 6 6 5 4 3 3 5 7 8 8 8 7 6 6 8 9 10 12 13 14 15 18 21 23 25 27 28 28 29 30 31 31 31 31
10 11 12 12 10 10 10 8 7 7 6 5 5 6 7 8 8 8 7 5 5 7 8 9 10 12 13 14 17 19 21 24 26 27 28 28 28 30 31 31 31 30
9 10 10 10 10 9 9 8 7 7 7 6 6 7 7 7 7 6 4 4 5 7 8 9 10 12 13 15 18 19 21 24 26 27 27 28 29 30 30 31 31 31
9 9 9 9 9 9 8 7 7 7 7 5 5 6 6 6 5 4 3 4 6 7 7 8 10 11 14 16 18 19 20 23 25 26 27 29 30 31 31 31 31 31
7 9 9 9 9 9 9 8 8 7 7 6 6 6 5 5 4 3 3 4 5 6 7 8 10 12 15 17 18 19 20 22 24 26 27 28 30 31 32 32 32 32
6 8 9 9 9 9 9 9 8 8 7 7 6 6 5 5 3 2 3 4 5 6 7 8 10 12 15 17 18 19 21 22 24 26 27 28 29 30 32 33 33 33
Wind_Direction
49 45 36 25 29 27 24 20 23 22 16 25 30 26 20 9 5 358 351 354 359 2 0 2 10 13 12 14 12 12 11 11 12 5 3 0 353 352 347 342 339 331
38 39 32 20 20 19 28 20 17 23 21 25 22 20 21 10 4 2 360 358 356 358 359 359 8 14 14 12 6 8 14 9 5 4 3 358 353 350 346 343 338 336
39 48 22 6 1 2 37 1 357 12 16 25 18 9 15 12 6 4 4 2 355 355 360 1 4 9 14 11 0 359 8 7 3 5 4 1 357 352 349 346 340 341
358 6 295 315 308 302 351 336 359 18 1 18 21 5 8 9 4 2 4 5 358 356 2 3 2 6 10 8 358 355 2 5 6 7 4 360 357 352 352 348 341 340
288 282 282 288 291 292 314 308 322 5 340 4 24 3 3 7 2 2 4 5 0 359 2 2 360 2 3 1 357 358 2 6 6 4 1 358 353 349 349 347 342 339
289 287 282 286 292 292 298 289 292 328 326 345 7 352 356 3 1 0 360 360 359 359 1 360 357 357 358 358 359 2 4 6 4 0 358 356 352 347 345 343 340 336
300 296 290 295 283 270 278 278 269 277 289 300 338 343 351 355 351 348 348 350 353 354 355 358 357 356 357 360 3 4 2 1 1 357 354 352 352 348 344 343 341 337
301 295 286 280 269 256 266 266 244 220 234 275 339 344 345 347 345 343 342 344 347 348 351 356 357 357 359 2 5 4 360 357 356 354 353 352 352 349 346 346 343 339
289 286 279 276 281 284 282 277 269 264 285 316 354 347 344 343 344 342 340 339 339 343 350 355 357 357 1 4 5 3 360 356 354 353 353 352 351 350 349 349 346 341
290 296 298 299 299 298 294 297 307 311 313 321 335 348 346 339 340 341 340 338 339 346 352 354 356 360 4 6 5 2 0 358 356 354 354 354 354 354 353 350 347 343
320 313 317 316 299 294 295 296 299 298 299 303 312 328 333 330 335 340 344 344 345 350 352 353 359 4 6 6 2 1 1 358 358 357 357 358 357 355 355 351 348 345
331 324 328 321 297 290 287 282 281 286 288 289 300 314 318 322 332 336 341 346 346 350 353 355 2 7 4 1 1 1 1 0 2 3 360 358 358 357 355 353 351 347
333 335 333 317 291 281 286 290 288 287 290 296 304 309 309 317 328 331 336 347 350 352 356 359 4 6 1 360 4 5 5 6 7 6 2 359 358 359 357 355 354 350
336 335 330 317 295 287 295 301 297 288 292 299 300 305 312 319 328 333 339 348 351 352 358 6 7 5 3 2 6 7 7 10 9 6 5 2 359 360 359 356 356 354
347 339 330 318 309 308 298 289 290 292 296 294 294 303 312 316 324 333 339 345 349 351 359 13 10 6 6 6 7 8 8 8 8 7 6 4 1 0 360 359 359 359
358 349 340 325 314 308 288 276 292 306 308 304 301 303 305 312 320 327 337 346 349 350 358 13 12 7 7 8 8 10 10 8 9 9 5 3 4 2 1 1 0 1
5 356 348 346 336 312 278 261 290 312 321 314 308 301 297 308 323 328 339 347 352 357 2 8 10 8 8 9 7 9 12 12 10 9 6 5 5 4 3 1 360 1
18 16 7 9 9 352 330 255 276 323 338 315 308 301 299 321 337 335 340 347 358 12 15 10 10 12 11 8 6 11 15 14 11 8 8 8 6 4 3 1 360 0
33 43 40 35 30 26 53 126 117 94 65 334 319 298 314 346 348 340 342 353 11 25 24 19 14 13 11 6 9 18 17 13 10 8 9 10 7 3 3 1 360 1
30 49 55 50 43 45 66 87 84 87 90 77 77 13 354 356 352 348 350 1 22 29 22 19 14 10 9 8 14 21 19 14 11 10 10 9 6 4 3 1 0 2
24 41 52 53 49 51 60 66 70 77 80 76 68 31 5 356 351 355 359 8 31 36 25 20 15 10 8 9 17 22 19 15 13 12 11 8 6 6 4 1 1 3
32 41 50 54 54 54 58 62 67 67 59 49 36 15 359 354 353 355 2 18 39 37 27 22 19 13 8 12 20 22 18 16 14 12 10 7 7 8 5 1 2 5
47 50 53 56 57 58 56 51 50 47 40 31 17 360 350 351 356 359 9 36 47 35 26 22 19 16 12 16 23 22 18 17 15 13 10 8 8 8 6 4 4 7
56 57 58 56 55 55 48 38 35 30 22 10 357 351 351 352 356 9 31 51 46 35 28 22 19 19 19 21 23 21 18 18 16 13 12 9 8 7 7 7 8 10
58 59 56 53 50 48 41 31 27 21 10 3 358 357 360 358 358 18 52 53 39 31 27 22 19 21 24 25 23 19 18 18 16 16 15 11 9 7 6 9 13 13
51 55 55 51 45 43 42 35 27 19 10 7 10 7 3 3 6 35 67 60 36 24 22 21 21 23 26 26 23 19 18 17 16 17 16 12 10 8 7 11 15 15